Flag for Belarus Weather past 2 weeks in Minsk, Belarus

Now
75 °F

Sunny.


Feels Like: 78 °F
Forecast: 60 / 72 °F
Wind: 6 mph from South

Location: Loshitsa / Minsk International 1

Current Time: Jul 8, 2015 at 10:41:09 AM

Latest Report: Jul 8, 2015 at 10:00 AM


Visibility: 10 mi

Pressure: 29.71 "Hg

Humidity: 47%

Dew point: 54 °F

Location of MinskLocation

Historic Weather in Minsk — Graph

°F

Minsk temperature yesterday

Maximum temperature yesterday: 75 °F (at 5:00 PM)
Minimum temperature yesterday: 59 °F (at 7:00 AM)
Average temperature yesterday: 68 °F

Past Weeks' High & Low Weather Summary

 TemperatureHumidityPressure
High88 °F (Jul 6, 4:00 PM)94% (Jul 1, 1:00 PM)30.45 "Hg (Jul 1, 1:00 PM)
Low57 °F (Jun 24, 7:30 AM)31% (Jul 5, 7:00 PM)29.74 "Hg (Jul 8, 8:30 AM)
Average70 °F52%30.06 "Hg
* Reported Jun 23 9:00 AM — Jul 8 9:00 AM, Minsk, Weather by CustomWeather, © 2015

Note: Actual official high and low records may vary slightly from our data, if they occured in-between our weather recording intervals... More about our weather records

Advertising

Minsk weather history for previous 24 hours

 ConditionsComfort  
Time TempWeatherWind HumidityBarometerVisibility
9:00 AM
Wed, Jul 8
72 °FSunny.6 mph57%29.74 "Hg10 mi
8:30 AM68 °FSunny.8 mph64%29.74 "Hg10 mi
8:00 AM68 °FSunny.3 mph64%29.77 "Hg10 mi
7:30 AM66 °FSunny.3 mph64%29.77 "Hg10 mi
8:30 PM
Tue, Jul 7
75 °FScattered clouds.10 mph36%29.86 "HgN/A
8:00 PM75 °FScattered clouds.10 mph36%29.86 "HgN/A
7:30 PM75 °FPartly sunny.17 mph34%29.86 "HgN/A
7:00 PM75 °FPartly sunny.17 mph34%29.86 "HgN/A
6:30 PM75 °FPartly sunny.17 mph36%29.89 "HgN/A
6:00 PM75 °FPartly sunny.15 mph36%29.89 "HgN/A
5:30 PM75 °FBroken clouds.15 mph41%29.89 "HgN/A
5:00 PM75 °FBroken clouds.15 mph41%29.89 "HgN/A
4:30 PM73 °FPartly sunny.15 mph44%29.92 "HgN/A
4:00 PM73 °FPartly sunny.15 mph44%29.92 "HgN/A
3:30 PM72 °FBroken clouds.13 mph47%29.92 "HgN/A
3:00 PM72 °FBroken clouds.13 mph47%29.92 "HgN/A
2:00 PM70 °FPartly sunny.13 mph53%29.92 "HgN/A
1:30 PM68 °FPartly sunny.15 mph56%29.95 "HgN/A
1:00 PM68 °FPartly sunny.15 mph56%29.95 "HgN/A
12:30 PM66 °FPartly sunny.15 mph60%29.95 "HgN/A
12:00 PM66 °FPartly sunny.13 mph60%29.95 "HgN/A
11:30 AM64 °FPartly sunny.15 mph68%29.95 "HgN/A
11:00 AM64 °FPartly sunny.15 mph68%29.95 "HgN/A
10:30 AM61 °FPartly sunny.10 mph77%29.95 "HgN/A
10:00 AM61 °FPartly sunny.13 mph77%29.95 "HgN/A
Weather by CustomWeather, © 2015

See weather overviewHow to use our weather pages